Home   Weather   Woodbridge Crossing   Past weeks
Flag for USA

Past Weather in Woodbridge Crossing, Arizona, USA — Yesterday and Last 2 Weeks

Now
61 °F

Sunny.


Feels Like: 61 °F
Forecast: 61 / 37 °F
Wind: 5 mph from West

Location: Mesa / Falcon Field

Current Time: Jan 22, 2019 at 6:08:01 pm

Latest Report: Jan 22, 2019 at 4:54 pm


Visibility: 10 mi

Pressure: 30.08 "Hg

Humidity: 20%

Dew Point: 19 °F

Location of Woodbridge CrossingLocation

Past Weather in Woodbridge Crossing — Graph

°F

Woodbridge Crossing Temperature Yesterday

Maximum temperature yesterday: 65 °F (at 11:54 am)
Minimum temperature yesterday: 47 °F (at 10:54 pm)
Average temperature yesterday: 56 °F

High & Low Weather Summary for the Past Weeks

 TemperatureHumidityPressure
High74 °F (Jan 20, 3:54 pm)93% (Jan 13, 3:36 am)30.28 "Hg (Jan 13, 3:36 am)
Low40 °F (Jan 22, 6:54 am)14% (Jan 19, 2:54 pm)29.78 "Hg (Jan 21, 2:54 pm)
Average57 °F55%30.06 "Hg
* Reported Jan 7 4:54 pm — Jan 22 4:54 pm, Woodbridge Crossing. Weather by CustomWeather, © 2019

Note: Actual official high and low records may vary slightly from our data, if they occured in-between our weather recording intervals... More about our weather records

Advertising

Woodbridge Crossing Weather History for the Previous 24 Hours

Scroll right to see more
 ConditionsComfort  
Time TempWeatherWind HumidityBarometerVisibility
4:54 pm
Tue, Jan 22
61 °FSunny.5 mph20%30.08 "Hg10 mi
3:54 pm61 °FSunny.5 mph20%30.07 "Hg10 mi
2:54 pm60 °FSunny.5 mph22%30.06 "Hg10 mi
1:54 pm59 °FSunny.7 mph25%30.06 "Hg10 mi
12:54 pm57 °FSunny.3 mph29%30.08 "Hg10 mi
11:54 am55 °FSunny.5 mph35%30.09 "Hg10 mi
10:54 am55 °FSunny.5 mph33%30.08 "Hg10 mi
9:54 am51 °FSunny.3 mph39%30.06 "Hg10 mi
8:54 am46 °FSunny.No wind51%30.04 "Hg10 mi
7:54 am41 °FSunny.No wind60%30.01 "Hg10 mi
6:54 am40 °FClear.No wind63%29.97 "Hg10 mi
5:54 am41 °FClear.7 mph60%29.93 "Hg10 mi
4:54 am42 °FClear.No wind60%29.93 "Hg10 mi
3:54 am43 °FClear.No wind58%29.91 "Hg10 mi
2:54 am46 °FClear.3 mph48%29.90 "Hg10 mi
1:54 am45 °FClear.3 mph49%29.88 "Hg10 mi
12:54 am44 °FClear.No wind53%29.88 "Hg10 mi
11:54 pm
Mon, Jan 21
47 °FClear.No wind44%29.87 "Hg10 mi
10:54 pm47 °FClear.3 mph44%29.86 "Hg10 mi
9:54 pm49 °FClear.7 mph39%29.85 "Hg10 mi
8:54 pm51 °FClear.3 mph33%29.84 "Hg10 mi
7:54 pm54 °FClear.6 mph27%29.83 "Hg10 mi
6:54 pm55 °FClear.7 mph25%29.81 "Hg10 mi
Weather by CustomWeather, © 2019

See weather overview